Tracking 19638 objects as of 20-May-2019
HD Live streaming from Space Station
objects crossing your sky now

TELSTAR 303

Track TELSTAR 303 now!
TELSTAR 303 is classified as:


NORAD ID: 15826
Int'l Code: 1985-048D
Perigee: 35,892.3 km
Apogee: 35,915.5 km
Inclination: 15.2 °
Period: 1,441.7 minutes
Semi major axis: 42274 km
RCS: 5.0403 m2 (large)
Launch date: June 17, 1985
Source: United States (US)
Launch site: AIR FORCE EASTERN TEST RANGE (AFETR)
aabbcc
Your satellite tracking list
Your tracking list is empty




NASA's NSSDC Master Catalog

Two Line Element Set (TLE):
1 15826U 85048D   19139.97663979 -.00000379  00000-0  00000+0 0  9995
2 15826  15.2032   7.6551 0002743 341.8842   7.3795  0.99879997103638
Source of the keplerian elements: AFSPC